Weather in Sadgorod

Russia / Samara Oblast     53°23′07″N   51°10′24″E
temp.,
°C
wind,
m/s
gust,
m/s
humid.,
%
clouds,
%
prec.,
mm/h
press.,
hPa
HPBL,
m
4 december, sat
sat401:00+2ssw513100100 0.1 1016460
04:00+2ssw71593100 0.5 1016515
07:00+2ssw81881100 0.0 1015523
10:00+2ssw9198992 0.0 1014655
13:00+3ssw102090100 0.0 1012729
16:00+3ssw101892100 1.8 1011991
19:00+4sw81597100 2.3 10111047
22:00+3wsw51098100 5.5 1011665
5 december, sun
sun501:000wnw2798100 3.2 1012362
04:00−1w3697100 5.1 1013388
07:00−1wsw3796100 0.3 1014266
10:00−2w2695100 0.3 1016229
13:00−2nw3485100 0.0 1016391
16:00−3nw1192100 0.0 101830
19:00−4nnw0095100 0.0 101913
22:00−4n1195100 0.0 101921
6 december, mon
mon601:00−4n2392100 0.0 102085
04:00−4n23935 0.0 102177
07:00−4n259340 0.0 1022125
10:00−4nne2589100 0.0 1024274
13:00−3nne3380100 0.0 1026370
16:00−4nne2486100 0.0 1027147
19:00−4ne2587100 0.0 1028257
22:00−5ene2487100 0.0 1029225
7 december, tue
tue701:00−5e3585100 0.0 1030277
04:00−5ene358737 0.0 1031219
07:00−6ene378628 0.0 1031207
10:00−6e488486 0.0 1032252
13:00−5ese4777100 0.0 1032281
16:00−5e5984100 0.0 1032258
19:00−6ese41084100 0.0 1031258
22:00−6ese4118180 0.0 1030282
8 december, wed
wed801:00−4se41181100 0.0 1029329
04:00−2se51194100 0.0 1028289
07:00−1sse51395100 0.0 1027375
10:000sse51492100 0.0 1027407
13:00+1sse51490100 0.0 1027454
16:00+1sse51288100 0.0 1027365
19:000sse51290100 0.0 1027356
22:000sse51388100 0.0 1027376